Location: Unspecified
(0.0000°N, 0.0000°E)
Time: 23:05:45
(UTC+00:00)

USA 198 - Visible Passes

Search period start: 17 October 2019 00:00
Search period end: 27 October 2019 00:00
Orbit: 1036 x 39311 km, 62.8° (Epoch: 23 July)

Date Brightness Start Highest point End Pass type
(mag) Time Alt. Az. Time Alt. Az. Time Alt. Az.
17 Oct 7.2 04:04:20 10° S 04:21:42 71° E 15:31:17 10° SE visible
18 Oct 7.3 03:59:37 10° S 04:16:59 70° E 15:26:33 10° SE visible
19 Oct 7.3 03:54:53 10° S 04:12:15 70° E 15:21:50 10° SE visible
20 Oct 7.3 03:50:10 10° S 04:07:32 70° E 15:17:06 10° SE visible
21 Oct 7.3 03:45:27 10° S 04:02:49 70° E 15:12:22 10° SE visible
22 Oct 7.3 03:40:44 10° S 03:58:06 70° E 15:07:38 10° SE visible
23 Oct 7.3 03:36:02 10° S 03:53:23 70° E 15:02:54 10° SE visible
24 Oct 7.3 03:31:18 10° S 03:48:39 70° E 14:58:10 10° SE visible
25 Oct 7.3 03:26:35 10° S 03:43:56 70° E 14:53:26 10° ESE visible
26 Oct 7.3 03:21:52 10° S 03:39:13 69° E 14:48:42 10° ESE visible
